AU224 Weather Reports


time (UTC)temp
F
wind
direction
speed
knots
gust
knots
rain 1hr
in
rain 24hr
in
rain mn
in
humidity
%
barometer
mb
20260510220047 54 0 0.0 0.0 0.00 0.23 0.00 84 1004.5
20260510214545 54 0 0.0 0.0 0.00 0.23 0.23 85 1004.7
20260510213043 55 0 0.0 0.0 0.00 0.23 0.23 85 1004.8
20260510211553 55 0 0.0 0.0 0.00 0.23 0.23 85 1004.9
20260510210050 55 0 0.0 0.0 0.00 0.22 0.22 84 1005.1
20260510204541 55 0 0.0 0.0 0.00 0.22 0.22 84 1005.0
20260510203049 55 0 0.0 0.0 0.00 0.22 0.22 84 1005.1
20260510201554 55 0 0.0 0.0 0.00 0.22 0.22 84 1005.3
20260510200046 55 0 0.0 0.0 0.00 0.22 0.22 84 1005.3
20260510194549 55 0 0.0 0.0 0.02 0.22 0.22 83 1005.2
20260510193049 55 0 0.0 0.0 0.03 0.22 0.22 82 1005.1
20260510191554 56 0 0.0 0.0 0.06 0.22 0.22 82 1005.0
20260510190100 56 0 0.0 0.0 0.06 0.22 0.22 82 1004.9
20260510184537 56 0 0.0 0.0 0.04 0.20 0.20 82 1004.8
20260510183042 56 0 0.0 0.0 0.03 0.18 0.18 82 1004.7
20260510181546 56 0 0.0 0.0 0.00 0.16 0.16 82 1004.5
20260510180059 56 0 0.0 5.2 0.04 0.15 0.15 82 1004.5
20260510174543 57 0 0.9 6.1 0.09 0.15 0.15 82 1004.4
20260510173050 57 0 0.0 2.6 0.14 0.15 0.15 81 1004.0
20260510171558 59 0 0.0 2.6 0.15 0.15 0.15 75 1003.9
20260510170050 61 0 0.0 7.0 0.11 0.11 0.11 70 1004.4
20260510164600 64 286 0.0 5.2 0.06 0.06 0.06 63 1004.4
20260510163115 68 0 1.7 10.4 0.00 0.00 0.00 55 1004.2
20260510161552 68 111 0.0 0.9 0.00 0.00 0.00 47 1003.6
20260510160049 69 114 0.0 3.5 0.00 0.00 0.00 45 1003.6
20260510154546 69 0 0.0 0.9 0.00 0.00 0.00 44 1003.7
20260510153057 70 337 0.0 2.6 0.00 0.00 0.00 41 1003.8
20260510151550 71 55 0.9 8.7 0.00 0.00 0.00 40 1004.0
20260510150048 73 0 0.0 4.3 0.00 0.00 0.00 40 1004.1
20260510144601 71 45 0.0 3.5 0.00 0.00 0.00 43 1004.3
20260510143056 72 360 0.0 4.3 0.00 0.00 0.00 38 1004.4
20260510141541 71 0 0.0 4.3 0.00 0.00 0.00 40 1004.6
20260510140042 71 0 0.9 7.0 0.00 0.00 0.00 39 1004.7
20260510134556 72 86 0.9 5.2 0.00 0.00 0.00 41 1004.9
20260510133044 70 0 0.0 4.3 0.00 0.00 0.00 44 1005.1
20260510131553 69 0 0.0 7.0 0.00 0.00 0.00 45 1005.4
20260510130045 69 360 0.9 7.0 0.00 0.00 0.00 45 1005.5
20260510124558 70 360 0.0 11.3 0.00 0.00 0.00 45 1005.3
20260510123050 70 0 0.0 7.8 0.00 0.00 0.00 47 1005.5
20260510121542 71 84 0.0 6.1 0.00 0.00 0.00 45 1005.6
20260510120053 72 0 0.9 7.0 0.00 0.00 0.00 45 1005.8
20260510114549 71 0 0.0 7.0 0.00 0.00 0.00 51 1006.0
20260510113048 71 96 0.9 5.2 0.00 0.00 0.00 48 1006.2
20260510111546 71 0 0.0 7.8 0.00 0.00 0.00 49 1006.4
20260510110044 70 0 0.0 7.8 0.00 0.00 0.00 50 1006.6
20260510104548 70 66 0.9 6.1 0.00 0.00 0.00 49 1006.9
20260510103044 67 0 0.0 4.3 0.00 0.00 0.00 56 1006.9
20260510101543 66 0 0.0 7.0 0.00 0.00 0.00 55 1007.0
20260510100105 66 102 0.0 5.2 0.00 0.00 0.00 55 1007.2
20260510094559 66 0 0.9 7.0 0.00 0.00 0.00 54 1007.2
20260510093052 65 0 0.0 7.8 0.00 0.00 0.00 56 1007.2
20260510091543 66 65 0.9 8.7 0.00 0.00 0.00 56 1007.4
20260510090048 65 68 0.9 7.8 0.00 0.00 0.00 56 1007.4
20260510084608 64 57 0.0 6.1 0.00 0.00 0.00 57 1007.4
20260510083051 64 83 0.0 3.5 0.00 0.00 0.00 60 1007.5
20260510081555 62 95 0.9 7.0 0.00 0.00 0.00 62 1007.6
20260510080047 61 60 0.9 7.0 0.00 0.00 0.00 61 1007.6
20260510074543 60 0 0.0 4.3 0.00 0.00 0.00 62 1007.9
20260510073039 59 0 0.9 6.1 0.00 0.00 0.00 64 1007.8
20260510071546 58 0 1.7 9.6 0.00 0.00 0.00 66 1007.8
20260510070053 57 360 0.9 7.0 0.00 0.00 0.00 68 1007.9
20260510064548 56 0 0.9 5.2 0.00 0.00 0.00 67 1008.1
20260510063047 54 360 0.0 3.5 0.00 0.00 0.00 71 1008.2
20260510061542 53 0 0.0 4.3 0.00 0.00 0.00 72 1008.2
20260510060049 53 0 0.0 2.6 0.00 0.00 0.00 72 1008.2
20260510054550 52 0 0.0 1.7 0.00 0.00 0.00 73 1008.4
20260510053049 50 0 0.0 1.7 0.00 0.00 0.00 78 1008.6
20260510051549 46 0 0.0 0.0 0.00 0.00 0.00 80 1008.7
20260510050040 44 0 0.0 0.0 0.00 0.00 0.00 81 1008.6
20260510044546 42 0 0.0 0.0 0.00 0.00 0.00 79 1008.6
20260510043048 42 0 0.0 0.0 0.00 0.00 0.00 78 1008.9
20260510041542 42 0 0.0 0.0 0.00 0.00 0.00 77 1009.0
20260510040047 43 0 0.0 0.0 0.00 0.00 0.00 77 1009.0
20260510034548 43 0 0.0 0.0 0.00 0.00 0.00 75 1008.9
20260510033048 43 0 0.0 0.0 0.00 0.00 0.00 75 1009.0
20260510031544 44 0 0.0 0.0 0.00 0.00 0.00 75 1009.2
20260510024548 45 0 0.0 0.0 0.00 0.00 0.00 75 1009.3
20260510023048 45 0 0.0 0.0 0.00 0.00 0.00 75 1009.4
20260510021547 45 0 0.0 0.0 0.00 0.00 0.00 74 1009.3
20260510020049 45 0 0.0 0.0 0.00 0.00 0.00 74 1009.5
20260510014550 46 0 0.0 0.0 0.00 0.00 0.00 74 1009.7
20260510013048 46 0 0.0 0.0 0.00 0.00 0.00 73 1009.7
20260510011548 46 0 0.0 0.0 0.00 0.00 0.00 73 1009.8
20260510010049 46 0 0.0 0.0 0.00 0.00 0.00 73 1009.8
20260510004548 47 0 0.0 0.0 0.00 0.00 0.00 71 1009.9
20260510003042 47 0 0.0 0.0 0.00 0.00 0.00 69 1009.9
20260510001546 48 0 0.0 0.0 0.00 0.00 0.00 69 1010.1
20260510000103 48 0 0.0 0.0 0.00 0.00 0.00 68 1010.1
20260509234556 49 0 0.0 0.0 0.00 0.00 0.00 68 1010.3
20260509233050 50 0 0.0 0.0 0.00 0.00 0.00 67 1010.5
20260509231544 51 0 0.0 0.0 0.00 0.00 0.00 67 1010.6
20260509230044 51 0 0.0 0.0 0.00 0.00 0.00 66 1010.8
20260509224542 52 0 0.0 0.0 0.00 0.00 0.00 64 1010.8
20260509223044 53 0 0.0 0.0 0.00 0.00 0.00 63 1010.9
20260509221545 54 0 0.0 0.0 0.00 0.00 0.00 62 1010.8